[[{"header":{"parameterUnit":"m.s-1","parameterCategory":2,"la1":30.2992,"la2":30.254,"lo1":-89.0895,"lo2":-89.0443,"dy":0.0025,"dx":0.0025,"nx":19,"ny":19,"refTime":"2026-05-18T21:00:00:Z","depth":"0","parameterNumber":2,"parameterNumberName":"U-component_of_CURRENTS"},"data":[0,0,0,0.5038,0.5039,0.5052,0.5051,0.5036,0.5036,0,0,0,0,0,0,0,0,0,0,0,0.5009,0.501,0.5038,0.5039,0.5052,0.5051,0.5036,0.5036,0,0,0,0,0,0,0,0,0,0,0,0.5009,0.501,0.501,0.504,0.5052,0.5051,0.5036,0.5027,0,0,0,0,0,0,0,0,0,0,0.5015,0.5039,0.501,0.501,0.504,0.5052,0.5051,0.5026,0.5027,0.5031,0,0.5038,0,0.5062,0.5037,0.5037,0,0,0,0.5008,0.5039,0.5018,0.501,0.504,0.5052,0.5037,0.5027,0.5028,0.5033,0.5038,0.5039,0.5062,0.5037,0.5037,0.5254,0.5256,0,0,0.5007,0.5033,0.5018,0.5019,0.5051,0.5037,0.5038,0.5027,0.5046,0.5038,0.5039,0.5061,0.5037,0.5037,0.5252,0.5254,0,0,0,0.5026,0.5033,0.5013,0.5019,0.5038,0.5038,0.5039,0.5046,0.5032,0.5039,0.5061,0.5037,0.5038,0.5249,0.5253,0.5411,0,0,0,0.5024,0.5046,0.5012,0.5031,0.5038,0.5058,0.5058,0.5032,0.5033,0.5061,0.5037,0.5038,0.5247,0.5251,0.5402,0.5447,0,0,0,0.5008,0.5046,0.5043,0.5032,0.5051,0.5058,0.5044,0.5032,0.5048,0.5037,0.5038,0.5245,0.525,0.5393,0.5434,0.5566,0,0,0,0.5037,0.508,0.5044,0.512,0.5052,0.5148,0.5044,0.512,0.5131,0.5038,0.5247,0.5252,0.539,0.5426,0.5557,0.5531,0.5569,0,0,0.5109,0.509,0.5138,0.5107,0.5209,0.5143,0.5307,0.527,0.5211,0.5236,0.5241,0.5405,0.5433,0.5564,0.5839,0.5868,0,0,0,0.5175,0.5192,0.5226,0.5274,0.5322,0.5385,0.5385,0.5393,0.5431,0.5247,0.547,0.5483,0.556,0.5528,0.5553,0.5154,0.5277,0.5277,0.5276,0.5244,0.5273,0.536,0.5406,0.5481,0.558,0.5652,0.5667,0.5598,0.5664,0.5661,0.5932,0.5905,0.5922,0.5514,0.573,0.5731,0.5731,0.5732,0.5338,0.5371,0.5436,0.5518,0.5599,0.5721,0.5859,0.587,0.601,0.5877,0.5945,0.5757,0.5958,0.5513,0.5743,0.5741,0.5739,0.5738,0.5738,0.5358,0.5373,0.5426,0.5533,0.5656,0.578,0.5959,0.6056,0.6119,0.623,0.6182,0.6177,0.5738,0.6267,0.6268,0.6269,0.6269,0.627,0.627,0.533,0.5389,0.5432,0.5544,0.56,0.5748,0.6003,0.6162,0.6337,0.6359,0.6358,0.5799,0.6095,0.602,0.6284,0.6281,0.628,0.6278,0.6277,0.5358,0.5347,0.54,0.5448,0.5586,0.5664,0.5956,0.6265,0.6475,0.6565,0.6022,0.6436,0.6377,0.6354,0.6287,0.6604,0.6604,0.6604,0.6604,0.5337,0.5351,0.5358,0.54,0.5505,0.5622,0.5745,0.5962,0.605,0.5927,0.5931,0.5732,0.5736,0.5623,0.5618,0.5529,0.5647,0.5645,0.5643,0.537,0.5344,0.5333,0.5336,0.5435,0.5536,0.5443,0.524,0.5367,0.5559,0.5385,0.5426,0.5081,0.512,0.4896,0.492,0.4759,0,0]},{"header":{"parameterUnit":"m.s-1","parameterCategory":2,"la1":30.2992,"la2":30.254,"lo1":-89.0895,"lo2":-89.0443,"dy":0.0025,"dx":0.0025,"nx":19,"ny":19,"refTime":"2026-05-18T21:00:00:Z","depth":"0","parameterNumber":3,"parameterNumberName":"V-component_of_CURRENTS"},"data":[0,0,0,0.0248,0.0248,0.0238,0.0238,0.0166,0.0165,0,0,0,0,0,0,0,0,0,0,0,0.0248,0.0249,0.0248,0.0248,0.0238,0.0238,0.0166,0.0165,0,0,0,0,0,0,0,0,0,0,0,0.0248,0.0249,0.0249,0.0248,0.0238,0.0238,0.0166,0.0185,0,0,0,0,0,0,0,0,0,0,0.0201,0.0208,0.0249,0.0249,0.0248,0.0238,0.0238,0.0187,0.0184,0.0157,0,0.0164,0,0.0168,0.016,0.016,0,0,0,0.0235,0.021,0.0217,0.0249,0.0248,0.0238,0.0239,0.0186,0.0182,0.0153,0.0163,0.0161,0.0167,0.0159,0.0159,0.0213,0.0214,0,0,0.0236,0.0233,0.022,0.0216,0.0255,0.024,0.0239,0.0184,0.0178,0.0163,0.0159,0.0166,0.0159,0.0158,0.0212,0.0213,0,0,0,0.0246,0.0234,0.0242,0.0218,0.0224,0.024,0.0239,0.018,0.0186,0.0159,0.0165,0.0159,0.0158,0.0211,0.0212,0.0352,0,0,0,0.0246,0.0241,0.0243,0.0239,0.0226,0.0209,0.0236,0.019,0.0184,0.0165,0.0158,0.0157,0.0209,0.0212,0.0346,0.0451,0,0,0,0.0247,0.024,0.0245,0.0239,0.0242,0.021,0.0213,0.0189,0.0188,0.016,0.0157,0.0208,0.0211,0.034,0.0439,0.059,0,0,0,0.0236,0.0281,0.0245,0.0298,0.0243,0.0305,0.0213,0.023,0.0218,0.0158,0.0209,0.0212,0.0338,0.0432,0.0582,0.0844,0.0903,0,0,0.0297,0.0287,0.0325,0.0294,0.038,0.0305,0.0394,0.0323,0.0249,0.0217,0.0219,0.0348,0.0438,0.0588,0.1003,0.1058,0,0,0,0.0349,0.0371,0.0392,0.0426,0.045,0.0479,0.042,0.0409,0.0386,0.0256,0.0365,0.0419,0.0509,0.0649,0.0693,0.0455,0.0225,0.0225,0.0224,0.042,0.0444,0.0521,0.0551,0.0586,0.06,0.0633,0.0603,0.0499,0.0521,0.0543,0.0773,0.0923,0.0959,0.0709,0.0532,0.0532,0.0532,0.0533,0.0527,0.0583,0.0612,0.0691,0.0728,0.0791,0.0822,0.0782,0.0859,0.0712,0.0791,0.0803,0.1017,0.0732,0.0542,0.0541,0.0539,0.0538,0.0538,0.0573,0.0613,0.0648,0.0767,0.0877,0.0919,0.1081,0.1047,0.1017,0.1088,0.1246,0.1246,0.0991,0.1122,0.1123,0.1124,0.1125,0.1126,0.1127,0.0615,0.0661,0.075,0.086,0.0966,0.1104,0.1237,0.1344,0.1485,0.1474,0.1475,0.1073,0.0954,0.0924,0.1145,0.1141,0.1139,0.1137,0.1136,0.0694,0.0703,0.0841,0.0943,0.1199,0.1455,0.1546,0.1888,0.1971,0.2118,0.1647,0.1685,0.1684,0.1649,0.1637,0.2029,0.2029,0.2029,0.2029,0.0744,0.0759,0.0956,0.1147,0.1397,0.1626,0.2143,0.2436,0.2307,0.2161,0.187,0.1724,0.1698,0.168,0.1645,0.1625,0.2005,0.2004,0.2003,0.0811,0.0855,0.1015,0.1199,0.1504,0.1864,0.2448,0.2954,0.2565,0.1958,0.1485,0.1486,0.1207,0.1186,0.1096,0.1066,0.101,0,0]}],[{"header":{"parameterUnit":"m.s-1","parameterCategory":2,"la1":30.2992,"la2":30.254,"lo1":-89.0895,"lo2":-89.0443,"dy":0.0025,"dx":0.0025,"nx":19,"ny":19,"refTime":"2026-05-18T21:00:00:Z","depth":"2","parameterNumber":2,"parameterNumberName":"U-component_of_CURRENTS"},"data":[0,0,0,0.3319,0.3321,0.3421,0.3421,0.3567,0.3569,0,0,0,0,0,0,0,0,0,0,0,0.3265,0.3265,0.3319,0.3321,0.3421,0.3421,0.3567,0.3569,0,0,0,0,0,0,0,0,0,0,0,0.3265,0.3265,0.3265,0.3322,0.342,0.3421,0.3567,0.3489,0,0,0,0,0,0,0,0,0,0,0.3391,0.3367,0.3265,0.3265,0.3322,0.342,0.3421,0.3485,0.3494,0.3525,0,0.352,0,0.3553,0.3578,0.3578,0,0,0,0.333,0.3359,0.3356,0.3265,0.3323,0.342,0.3378,0.349,0.35,0.3537,0.3522,0.3528,0.3556,0.3579,0.358,0.3792,0.3794,0,0,0.3325,0.332,0.3349,0.3362,0.3323,0.3375,0.3381,0.3496,0.3514,0.3523,0.3532,0.3558,0.358,0.3581,0.3791,0.3793,0,0,0,0.3303,0.3317,0.3311,0.3355,0.3375,0.3378,0.3385,0.3509,0.3497,0.3534,0.356,0.3581,0.3582,0.379,0.3792,0.387,0,0,0,0.33,0.3303,0.3308,0.3313,0.3372,0.345,0.3395,0.3489,0.3504,0.3559,0.3581,0.3584,0.3788,0.3791,0.3865,0.3867,0,0,0,0.3265,0.3302,0.3297,0.3311,0.3349,0.3448,0.3446,0.3493,0.352,0.3579,0.3584,0.3787,0.379,0.386,0.3861,0.3991,0,0,0,0.328,0.33,0.3297,0.3353,0.3348,0.3438,0.3446,0.3536,0.359,0.3581,0.3789,0.3792,0.3858,0.3857,0.3986,0.3826,0.3838,0,0,0.3317,0.3305,0.3343,0.3343,0.3373,0.3426,0.3559,0.3627,0.365,0.375,0.3755,0.3866,0.386,0.399,0.4002,0.4008,0,0,0,0.3365,0.334,0.3361,0.3385,0.346,0.3553,0.3641,0.37,0.3822,0.3694,0.3907,0.39,0.398,0.3874,0.388,0.3806,0.3806,0.3805,0.3805,0.331,0.3353,0.3401,0.345,0.3502,0.3659,0.3766,0.3871,0.3892,0.3977,0.3996,0.4182,0.4071,0.4073,0.4048,0.4048,0.4048,0.4049,0.4049,0.3313,0.3333,0.3397,0.3448,0.3561,0.3688,0.3901,0.3983,0.417,0.4123,0.4199,0.3997,0.4084,0.4056,0.4055,0.4054,0.4053,0.4052,0.4052,0.3185,0.3229,0.3294,0.3419,0.3554,0.3744,0.3917,0.4085,0.4233,0.4308,0.4246,0.4241,0.422,0.4383,0.4384,0.4384,0.4385,0.4385,0.4386,0.3083,0.316,0.325,0.3393,0.3475,0.3668,0.3966,0.4106,0.427,0.4311,0.431,0.4296,0.4285,0.4242,0.4395,0.4393,0.4392,0.4391,0.4391,0.2968,0.303,0.3144,0.3226,0.3457,0.3433,0.3794,0.4032,0.4234,0.4286,0.4332,0.433,0.4294,0.4286,0.4244,0.439,0.439,0.439,0.439,0.2891,0.2942,0.3125,0.3226,0.3299,0.333,0.3345,0.3556,0.3879,0.3955,0.3973,0.3816,0.3827,0.3756,0.3759,0.3703,0.3708,0.3706,0.3705,0.2891,0.2942,0.3051,0.3188,0.3203,0.3109,0.2954,0.2966,0.3284,0.3671,0.3784,0.4357,0.417,0.4171,0.4092,0.4086,0.4007,0,0]},{"header":{"parameterUnit":"m.s-1","parameterCategory":2,"la1":30.2992,"la2":30.254,"lo1":-89.0895,"lo2":-89.0443,"dy":0.0025,"dx":0.0025,"nx":19,"ny":19,"refTime":"2026-05-18T21:00:00:Z","depth":"2","parameterNumber":3,"parameterNumberName":"V-component_of_CURRENTS"},"data":[0,0,0,0.0262,0.0262,0.0231,0.0231,0.0166,0.0165,0,0,0,0,0,0,0,0,0,0,0,0.0281,0.0281,0.0262,0.0262,0.0231,0.0231,0.0166,0.0165,0,0,0,0,0,0,0,0,0,0,0,0.0281,0.0281,0.0282,0.0262,0.0231,0.0231,0.0166,0.0194,0,0,0,0,0,0,0,0,0,0,0.0227,0.0236,0.0281,0.0282,0.0262,0.0231,0.0231,0.0196,0.0193,0.0174,0,0.018,0,0.0169,0.0161,0.0161,0,0,0,0.0256,0.0239,0.0244,0.0282,0.0261,0.0231,0.0243,0.0194,0.019,0.017,0.0179,0.0177,0.0168,0.016,0.016,0.0186,0.0187,0,0,0.0258,0.0258,0.0247,0.0243,0.0267,0.0244,0.0242,0.0192,0.0185,0.0179,0.0175,0.0167,0.016,0.016,0.0185,0.0186,0,0,0,0.0267,0.0259,0.0266,0.0245,0.0241,0.0244,0.0241,0.0187,0.0194,0.0175,0.0166,0.016,0.0159,0.0184,0.0186,0.0321,0,0,0,0.0267,0.0265,0.0267,0.0264,0.0242,0.0213,0.0237,0.0198,0.0191,0.0167,0.016,0.0158,0.0183,0.0185,0.0315,0.0407,0,0,0,0.028,0.0265,0.027,0.0264,0.0254,0.0214,0.0216,0.0196,0.0186,0.0161,0.0158,0.0183,0.0185,0.031,0.0397,0.0502,0,0,0,0.027,0.0315,0.027,0.0315,0.0255,0.0299,0.0217,0.0219,0.0207,0.0159,0.0184,0.0185,0.0309,0.0391,0.0495,0.0587,0.0625,0,0,0.0333,0.0322,0.0354,0.0314,0.0401,0.0302,0.0368,0.03,0.0227,0.0195,0.0195,0.0317,0.0396,0.0501,0.0694,0.0729,0,0,0,0.0379,0.041,0.0427,0.0457,0.0458,0.0473,0.0391,0.0363,0.0331,0.0228,0.0317,0.0363,0.0424,0.0465,0.0493,0.0194,0.0194,0.0194,0.0194,0.0478,0.0493,0.0574,0.0594,0.061,0.0585,0.059,0.0533,0.0429,0.0434,0.0471,0.0645,0.0689,0.0712,0.0451,0.0451,0.0452,0.0452,0.0453,0.0604,0.0669,0.0685,0.0766,0.0778,0.0817,0.0784,0.0722,0.0724,0.06,0.0652,0.0604,0.0751,0.0463,0.0461,0.046,0.0459,0.0458,0.0457,0.0689,0.0731,0.0756,0.0868,0.0982,0.0986,0.1124,0.1021,0.0892,0.0922,0.095,0.0948,0.075,0.0941,0.0942,0.0942,0.0943,0.0944,0.0944,0.0762,0.0799,0.0891,0.1003,0.1127,0.1285,0.1319,0.1341,0.1267,0.1138,0.1137,0.081,0.0794,0.0779,0.0958,0.0956,0.0954,0.0953,0.0952,0.0912,0.0882,0.1028,0.1146,0.145,0.1721,0.1723,0.1768,0.1701,0.1695,0.1256,0.1244,0.1218,0.1194,0.1188,0.1463,0.1463,0.1463,0.1463,0.1001,0.1,0.1181,0.1408,0.1727,0.1944,0.219,0.2077,0.1811,0.1568,0.1562,0.1451,0.1429,0.1405,0.1376,0.1368,0.1691,0.1691,0.1691,0.1121,0.1138,0.1311,0.1489,0.1881,0.2203,0.2395,0.2213,0.1773,0.1693,0.1525,0.1493,0.1308,0.1282,0.1218,0.1182,0.1158,0,0]}],[{"header":{"parameterUnit":"m.s-1","parameterCategory":2,"la1":30.2992,"la2":30.254,"lo1":-89.0895,"lo2":-89.0443,"dy":0.0025,"dx":0.0025,"nx":19,"ny":19,"refTime":"2026-05-18T21:00:00:Z","depth":"4","parameterNumber":2,"parameterNumberName":"U-component_of_CURRENTS"},"data":[0,0,0,0.181,0.1815,0.2051,0.2052,0.2278,0.228,0,0,0,0,0,0,0,0,0,0,0,0.1752,0.1754,0.181,0.1815,0.2051,0.2052,0.2278,0.228,0,0,0,0,0,0,0,0,0,0,0,0.1752,0.1754,0.1756,0.1816,0.2051,0.2052,0.2278,0.2122,0,0,0,0,0,0,0,0,0,0,0.1904,0.184,0.1753,0.1756,0.1817,0.2051,0.2053,0.2116,0.2132,0.2144,0,0.2198,0,0.2226,0.2292,0.2292,0,0,0,0.1832,0.1826,0.19,0.1757,0.1819,0.205,0.1949,0.2126,0.2144,0.2165,0.2201,0.221,0.223,0.2293,0.2294,0.2509,0.251,0,0,0.1819,0.1783,0.1888,0.1912,0.1902,0.1942,0.1956,0.2138,0.2157,0.2202,0.2215,0.2234,0.2294,0.2295,0.2508,0.2509,0,0,0,0.177,0.1773,0.1845,0.1902,0.1942,0.1948,0.1965,0.215,0.2178,0.2218,0.2236,0.2295,0.2297,0.2507,0.2509,0.256,0,0,0,0.1763,0.1744,0.1839,0.1818,0.1939,0.2053,0.1973,0.2166,0.2187,0.2235,0.2295,0.2299,0.2506,0.2508,0.2556,0.255,0,0,0,0.1738,0.174,0.1777,0.1816,0.1909,0.2052,0.2091,0.2172,0.2196,0.2293,0.2299,0.2505,0.2507,0.2553,0.2545,0.2645,0,0,0,0.1679,0.1731,0.1777,0.1844,0.1907,0.2047,0.209,0.2207,0.2292,0.2296,0.2506,0.2508,0.2552,0.2543,0.2641,0.2286,0,0,0,0.1702,0.1733,0.1771,0.1817,0.1912,0.2014,0.2152,0.2281,0.2332,0.2441,0.2447,0.2557,0.2545,0.2644,0.2434,0,0,0,0,0.1749,0.1772,0.1813,0.1885,0.1997,0.2127,0.2258,0.2335,0.2491,0.2392,0.2593,0.2584,0.2645,0.2428,0.252,0.252,0.252,0.2519,0.2519,0.1684,0.1756,0.1816,0.1927,0.2031,0.222,0.2345,0.248,0.253,0.2619,0.2653,0.2795,0.2569,0.27,0.27,0.27,0.2701,0.2701,0.2701,0.1665,0.168,0.1807,0.19,0.2061,0.2204,0.2449,0.2544,0.2752,0.2739,0.2798,0.2529,0.2707,0.2706,0.2705,0.2704,0.2704,0.2703,0.2703,0.156,0.1581,0.1683,0.1832,0.1996,0.2217,0.2402,0.2618,0.2779,0.2862,0.2692,0.2849,0.2815,0.2935,0.2935,0.2936,0.2936,0.2937,0.2937,0.1401,0.1502,0.1582,0.176,0.1868,0.2081,0.241,0.2552,0.2776,0.2706,0.2907,0.2874,0.2867,0.2831,0.2944,0.2942,0.2942,0.2941,0.294,0.1252,0.1335,0.1432,0.154,0.1759,0.1885,0.2233,0.2443,0.2577,0.2608,0.2635,0.2648,0.2602,0.2602,0.2553,0.2589,0.2585,0.258,0,0.1141,0.1187,0.1311,0.1412,0.1526,0.1754,0.1871,0.2091,0.2315,0.2225,0.2572,0.2593,0.2603,0.2539,0.2533,0.2468,0,0,0,0.1062,0.1125,0.116,0.1284,0.1387,0.1604,0.1887,0.1896,0.2277,0.2314,0.2476,0.2504,0.2741,0.2964,0.2925,0.2916,0.2857,0,0]},{"header":{"parameterUnit":"m.s-1","parameterCategory":2,"la1":30.2992,"la2":30.254,"lo1":-89.0895,"lo2":-89.0443,"dy":0.0025,"dx":0.0025,"nx":19,"ny":19,"refTime":"2026-05-18T21:00:00:Z","depth":"4","parameterNumber":3,"parameterNumberName":"V-component_of_CURRENTS"},"data":[0,0,0,0.0302,0.0301,0.0287,0.0287,0.0251,0.025,0,0,0,0,0,0,0,0,0,0,0,0.0312,0.0312,0.0302,0.0301,0.0287,0.0287,0.0251,0.025,0,0,0,0,0,0,0,0,0,0,0,0.0312,0.0312,0.0312,0.0301,0.0287,0.0287,0.0251,0.0266,0,0,0,0,0,0,0,0,0,0,0.0283,0.0289,0.0312,0.0312,0.0301,0.0287,0.0287,0.0267,0.0265,0.0252,0,0.0253,0,0.0248,0.0247,0.0247,0,0,0,0.0302,0.0291,0.0291,0.0312,0.0301,0.0287,0.0294,0.0266,0.0264,0.0249,0.0253,0.0251,0.0247,0.0247,0.0247,0.0253,0.0253,0,0,0.0303,0.0304,0.0292,0.029,0.0302,0.0294,0.0293,0.0265,0.0262,0.0253,0.025,0.0247,0.0247,0.0246,0.0252,0.0253,0,0,0,0.0305,0.0304,0.0305,0.0291,0.0288,0.0294,0.0293,0.0263,0.0265,0.025,0.0246,0.0246,0.0246,0.0252,0.0253,0.0357,0,0,0,0.0305,0.0305,0.0305,0.0305,0.0289,0.0276,0.0291,0.0267,0.0263,0.0246,0.0246,0.0246,0.0252,0.0252,0.0354,0.0423,0,0,0,0.0312,0.0305,0.0306,0.0305,0.0298,0.0277,0.0277,0.0266,0.0261,0.0247,0.0245,0.0251,0.0252,0.035,0.0416,0.0445,0,0,0,0.0309,0.0337,0.0306,0.0334,0.0299,0.0329,0.0277,0.0284,0.028,0.0246,0.0252,0.0253,0.0349,0.0412,0.0441,0.0456,0,0,0,0.035,0.0341,0.036,0.0333,0.0393,0.033,0.0378,0.034,0.0287,0.0258,0.0259,0.0355,0.0415,0.0444,0.0509,0,0,0,0,0.0378,0.04,0.0411,0.0432,0.0431,0.0448,0.04,0.0375,0.0353,0.0286,0.0344,0.0379,0.0394,0.039,0.0257,0.0257,0.0257,0.0257,0.0257,0.0445,0.0455,0.0515,0.0533,0.0544,0.0527,0.0528,0.0483,0.0418,0.0418,0.0456,0.0542,0.0542,0.0431,0.0432,0.0433,0.0433,0.0433,0.0433,0.0538,0.0584,0.0603,0.0669,0.0677,0.0706,0.0665,0.0621,0.0604,0.0537,0.0544,0.0491,0.0444,0.0442,0.044,0.0439,0.0438,0.0437,0.0437,0.0591,0.0624,0.0661,0.0759,0.084,0.0838,0.0904,0.0837,0.0725,0.0735,0.0696,0.0611,0.0611,0.0728,0.0729,0.0729,0.073,0.073,0.073,0.0634,0.0679,0.0762,0.0864,0.0954,0.105,0.1049,0.1022,0.091,0.0834,0.077,0.0641,0.0631,0.0626,0.0737,0.0736,0.0735,0.0735,0.0734,0.0704,0.0718,0.0847,0.0943,0.115,0.1227,0.1239,0.1139,0.11,0.1012,0.0862,0.0854,0.0815,0.0802,0.0801,0.0968,0.0968,0.0969,0,0.0744,0.076,0.0928,0.109,0.1265,0.1336,0.1331,0.127,0.1097,0.1082,0.1079,0.0915,0.0906,0.0865,0.0853,0.0856,0,0,0,0.0792,0.0839,0.0958,0.1111,0.132,0.1341,0.1331,0.1273,0.1137,0.1075,0.0985,0.0981,0.0881,0.0758,0.0679,0.0667,0.0655,0,0]}]]